Simultaneous Nadir Overpasses (SNOs) Predictions

Prediction of SNOs between GOES-16 and METOP-B Satellite Orbit:

Table of predicted SNOs for the next 14.0 days since TLE Epoch: 3/11/2023
Index Date Time (GOES-16) GOES-16 Lat,Lon METOP-B Lat,Lon Distance(km) Time Diff (sec)
1 03/13/2023 14:28:07 0.05, -75.22 -0.05, -74.81 46.44 80
2 03/15/2023 02:49:46 -0.05, -75.21 -0.96, -79.41 477.72 80
3 03/16/2023 02:26:26 -0.04, -75.22 0.14, -74.41 92.01 80
4 03/17/2023 14:47:56 0.05, -75.24 0.90, -78.96 424.77 80
5 03/18/2023 14:24:36 0.04, -75.25 -0.27, -73.98 145.57 80
6 03/20/2023 02:46:15 -0.05, -75.25 -0.78, -78.56 377.21 80
7 03/21/2023 02:22:54 -0.04, -75.26 0.33, -73.56 193.72 80
8 03/22/2023 14:44:24 0.05, -75.30 0.68, -78.12 321.31 80
9 03/23/2023 14:21:04 0.04, -75.32 -0.44, -73.12 250.19 80
